Location: Bastelaar
(51.0950°N, 3.8602°E)
Time: 08:25:33
(UTC+00:00)

BlueWalker 3 - Pass Details

Date: 26 January 2026
Orbit: 450 x 461 km, 53.2° (Epoch: 11 February)

Event Time Altitude Azimuth Distance (km) Brightness Sun altitude
Rises 19:13:55 0° 268° (W) 2,456 6.8 -26.3°
Reaches altitude 10° 19:16:04 10° 272° (W) 1,584 5.5 -26.7°
Enters shadow 19:18:00 29° 283° (WNW) 854 3.7 -27.0°
